Weather History for Van, Turkey

Change the Weather History Date:

Monday, March 11, 2013

  Actual Average Record
Temperature  
Mean Temperature 33 °F -  
Max Temperature 42 °F 48 °F 52 °F (2014)
Min Temperature 24 °F 30 °F 10 °F (2012)
Degree Days  
Heating Degree Days 32    
Moisture  
Dew Point 27 °F    
Average Humidity 76    
Maximum Humidity 93    
Minimum Humidity 53    
Precipitation  
Precipitation 0.00 in 0.06 in - ()
Sea Level Pressure  
Sea Level Pressure 29.97 in    
Wind  
Wind Speed 3 mph ()    
Max Wind Speed 9 mph    
Max Gust Speed -    
Visibility 5.7 miles    
Events      
Averages and records for this station are not official NWS values.
T = Trace of Precipitation, MM = Missing Value Source: Averaged Metar Reports

Daily Weather History Graph

Daily Weather History Graph

Search for Another Location

Airport:

Trip Planner

Search our weather history database for the weather conditions in past years. The results will help you decide how hot, cold, wet, or windy it might be!

Date:

Astronomy

Mar. 11, 2013 Rise Set
Actual Time 5:24 AM EET 5:09 PM EET
Civil Twilight 4:57 AM EET 5:36 PM EET
Nautical Twilight 4:27 AM EET 6:06 PM EET
Astronomical Twilight 3:56 AM EET 6:37 PM EET
Moon 4:45 AM EET (3/11) 4:57 PM EET (3/11)
Length of Visible Light 12h 38m
Length of Day
11h 45m
Waning Crescent, 0% of the Moon is Illuminated
Mar 11
Waning Crescent
Mar 11
New
Mar 19
First Quarter
Mar 27
Full
Apr 3
Last Quarter

Hourly Weather History & Observations

Time (EET) Temp. Windchill Dew Point Humidity Pressure Visibility Wind Dir Wind Speed Gust Speed Precip Events Conditions
12:50 AM 26.6 °F - 23.0 °F 86% 29.95 in - ENE 2.3 mph - N/A   Clear
1:50 AM 28.4 °F - 24.8 °F 86% 29.92 in - Calm Calm - N/A   Clear
2:00 AM 28 °F - 24 °F 80%  in 6 mi Calm Calm - -  
2:50 AM 24.8 °F 20.5 °F 23.0 °F 93% 29.92 in - NE 3.5 mph - N/A   Clear
3:50 AM 24.8 °F 20.5 °F 23.0 °F 93% 29.92 in 6.2 mi East 3.5 mph - N/A   Partly Cloudy
4:50 AM 24.8 °F - 23.0 °F 93% 29.95 in 5.0 mi Calm Calm - N/A   Partly Cloudy
5:50 AM 26.6 °F - 23.0 °F 86% 29.95 in 5.0 mi East 2.3 mph - N/A   Partly Cloudy
6:50 AM 32.0 °F 28.7 °F 26.6 °F 80% 29.95 in 2.5 mi ENE 3.5 mph - N/A   Partly Cloudy
7:10 AM 35.6 °F - 26.6 °F 70% 29.95 in 5.0 mi Calm Calm - N/A   Partly Cloudy
7:50 AM 37.4 °F - 28.4 °F 70% 29.95 in 5.0 mi Variable 2.3 mph - N/A   Partly Cloudy
8:00 AM 36 °F - 27 °F 60%  in 5 mi WSW 2.3 mph - -   Haze
8:50 AM 37.4 °F 32.8 °F 28.4 °F 70% 29.98 in - WNW 5.8 mph - N/A   Clear
9:50 AM 39.2 °F 33.6 °F 30.2 °F 70% 29.98 in - WNW 8.1 mph - N/A   Clear
10:50 AM 41.0 °F 35.8 °F 30.2 °F 65% 29.98 in - WNW 8.1 mph - N/A   Clear
11:50 AM 41.0 °F 35.2 °F 30.2 °F 65% 29.98 in - WNW 9.2 mph - N/A   Clear
12:50 PM 41.0 °F 37.1 °F 28.4 °F 61% 29.95 in - West 5.8 mph - N/A   Clear
1:50 PM 41.0 °F 37.1 °F 28.4 °F 61% 29.95 in 6.2 mi WNW 5.8 mph - N/A   Partly Cloudy
2:50 PM 41.0 °F 36.4 °F 28.4 °F 61% 29.95 in 6.2 mi WNW 6.9 mph - N/A   Partly Cloudy
3:50 PM 42.8 °F 38.6 °F 26.6 °F 53% 29.95 in 6.2 mi NNW 6.9 mph - N/A   Partly Cloudy
4:50 PM 41.0 °F 38.0 °F 30.2 °F 65% 29.98 in 6.2 mi West 4.6 mph - N/A   Partly Cloudy
5:50 PM 37.4 °F - 30.2 °F 75% 29.98 in 6.2 mi WSW 2.3 mph - N/A   Partly Cloudy
6:50 PM 35.6 °F 32.8 °F 30.2 °F 81% 30.01 in 6.2 mi ESE 3.5 mph - N/A   Partly Cloudy
7:50 PM 33.8 °F - 28.4 °F 81% 30.01 in 6.2 mi SE 2.3 mph - N/A   Partly Cloudy
8:00 PM 34 °F - 29 °F 74%  in 6 mi SE 2.3 mph - -   Scattered Clouds
8:50 PM 32.0 °F 28.7 °F 30.2 °F 93% 30.01 in 6.2 mi East 3.5 mph - N/A   Partly Cloudy
9:50 PM 32.0 °F - 28.4 °F 87% 30.01 in 6.2 mi East 2.3 mph - N/A   Partly Cloudy
10:50 PM 30.2 °F - 28.4 °F 93% 30.01 in 6.2 mi Variable 1.2 mph - N/A   Partly Cloudy
11:50 PM 33.8 °F 30.8 °F 28.4 °F 81% 30.01 in 6.2 mi Variable 3.5 mph - N/A   Partly Cloudy